Weather History for Challis, ID

Change the Weather History Date:

Tuesday, March 12, 2013

  Actual Average Record
Temperature  
Mean Temperature 41 °F 35 °F  
Max Temperature 56 °F 47 °F 69 °F (2007)
Min Temperature 25 °F 23 °F -7 °F (1922)
Degree Days  
Heating Degree Days 24 30  
Month to date heating degree days 373 387  
Since 1 July heating degree days 6081 6436  
Cooling Degree Days 0 0  
Month to date cooling degree days 0 0  
Year to date cooling degree days 0 0  
Moisture  
Dew Point 21 °F    
Average Humidity 51    
Maximum Humidity 75    
Minimum Humidity 26    
Precipitation  
Precipitation 0.00 in 0.03 in 0.21 in (1949)
Month to date precipitation 0.07 0.23  
Year to date precipitation 0.42 1.36  
Sea Level Pressure  
Sea Level Pressure 30.18 in    
Wind  
Wind Speed 4 mph (West)    
Max Wind Speed 18 mph    
Max Gust Speed 23 mph    
Visibility 10 miles    
Events      
T = Trace of Precipitation, MM = Missing Value Source: NWS Daily Summary

Daily Weather History Graph

Daily Weather History Graph

Search for Another Location

Airport:

Trip Planner

Search our weather history database for the weather conditions in past years. The results will help you decide how hot, cold, wet, or windy it might be!

Date:

Astronomy

Mar. 12, 2013 Rise Set
Actual Time 7:54 AM MDT 7:39 PM MDT
Civil Twilight 7:25 AM MDT 8:08 PM MDT
Nautical Twilight 6:51 AM MDT 8:42 PM MDT
Astronomical Twilight 6:17 AM MDT 9:16 PM MDT
Moon 7:59 AM MDT (3/12) 9:04 PM MDT (3/12)
Length of Visible Light 12h 43m
Length of Day
11h 45m
New Moon, 1% of the Moon is Illuminated
Mar 12
New Moon
Mar 19
First Quarter
Mar 27
Full
Apr 2
Last Quarter
Apr 10
New

Hourly Weather History & Observations

Time (MDT) Temp. Windchill Dew Point Humidity Pressure Visibility Wind Dir Wind Speed Gust Speed Precip Events Conditions
12:55 AM 30.9 °F - 18.0 °F 59% 30.21 in 10.0 mi Calm Calm - N/A   Clear
1:55 AM 28.0 °F - 18.0 °F 66% 30.20 in 10.0 mi Calm Calm - N/A   Clear
2:55 AM 27.0 °F - 17.1 °F 66% 30.23 in 10.0 mi Calm Calm - N/A   Partly Cloudy
3:55 AM 30.0 °F - 18.0 °F 61% 30.22 in 10.0 mi Calm Calm - N/A   Overcast
4:55 AM 30.0 °F - 18.0 °F 61% 30.20 in 10.0 mi Calm Calm - N/A   Overcast
5:55 AM 28.0 °F - 21.0 °F 75% 30.20 in 10.0 mi Calm Calm - N/A   Overcast
6:55 AM 30.0 °F - 17.1 °F 59% 30.24 in 10.0 mi Calm Calm - N/A   Overcast
7:55 AM 28.9 °F 22.8 °F 19.0 °F 67% 30.24 in 10.0 mi South 5.8 mph - N/A   Overcast
8:55 AM 30.0 °F 25.2 °F 19.9 °F 66% 30.26 in 10.0 mi NNE 4.6 mph - N/A   Overcast
9:55 AM 35.1 °F 32.2 °F 18.0 °F 50% 30.27 in 10.0 mi North 3.5 mph - N/A   Mostly Cloudy
10:55 AM 37.9 °F - 19.0 °F 47% 30.24 in 10.0 mi Calm Calm - N/A   Clear
11:55 AM 43.0 °F 40.3 °F 21.0 °F 42% 30.19 in 10.0 mi North 4.6 mph - N/A   Clear
12:55 PM 46.9 °F - 24.1 °F 41% 30.18 in 10.0 mi North 3.5 mph - N/A   Clear
1:55 PM 52.0 °F - 25.0 °F 35% 30.14 in 10.0 mi North 5.8 mph - N/A   Partly Cloudy
2:55 PM 52.0 °F - 25.0 °F 35% 30.12 in 10.0 mi Calm Calm - N/A   Clear
3:55 PM 54.0 °F - 25.0 °F 33% 30.10 in 10.0 mi Calm Calm - N/A   Partly Cloudy
4:55 PM 55.0 °F - 21.9 °F 28% 30.09 in 10.0 mi WSW 17.3 mph - N/A   Mostly Cloudy
5:12 PM 53.6 °F - 21.2 °F 28% 30.12 in 10.0 mi West 16.1 mph 23.0 mph N/A   Scattered Clouds
5:55 PM 55.0 °F - 21.9 °F 28% 30.11 in 10.0 mi SW 9.2 mph - N/A   Mostly Cloudy
6:55 PM 53.1 °F - 23.0 °F 31% 30.12 in 10.0 mi SW 6.9 mph - N/A   Overcast
7:55 PM 48.9 °F - 24.1 °F 38% 30.15 in 10.0 mi SW 8.1 mph - N/A   Mostly Cloudy
8:55 PM 46.9 °F - 23.0 °F 39% 30.16 in 10.0 mi WSW 10.4 mph - N/A   Clear
9:55 PM 46.9 °F - 23.0 °F 39% 30.17 in 10.0 mi WSW 8.1 mph - N/A   Partly Cloudy
10:55 PM 42.1 °F - 24.1 °F 49% 30.19 in 10.0 mi Calm Calm - N/A   Clear
11:55 PM 41.0 °F - 25.0 °F 53% 30.19 in 10.0 mi Calm Calm - N/A   Scattered Clouds